KI5IZM-13 Weather Reports


time (UTC)temp
C
wind
direction
speed
KPH
gust
KPH
rain 1hr
cm
rain 24hr
cm
rain mn
cm
humidity
%
barometer
mb
20260506180030 16 37 0.0 6.4 0.00 0.00 0.00 84 1013.5
20260506174520 16 351 0.0 12.9 0.00 0.00 0.00 85 1013.3
20260506173026 15 146 1.6 8.0 0.00 0.00 0.00 86 1013.4
20260506171536 15 25 0.0 9.7 0.00 0.00 0.00 87 1014.0
20260506170025 15 352 0.0 11.3 0.00 0.00 0.00 87 1014.6
20260506164526 15 36 1.6 6.4 0.00 0.00 0.00 87 1015.4
20260506163006 15 240 0.0 4.8 0.00 0.00 0.00 87 1015.7
20260506161509 15 269 0.0 9.7 0.00 0.00 0.00 86 1015.1
20260506160012 15 46 0.0 3.2 0.00 0.00 0.00 86 1014.6
20260506154513 15 38 1.6 9.7 0.00 0.00 0.00 86 1014.0
20260506153020 15 11 0.0 4.8 0.00 0.00 0.00 85 1013.5
20260506151505 15 256 0.0 3.2 0.00 0.00 0.00 86 1013.4
20260506150017 15 146 0.0 3.2 0.00 0.00 0.00 86 1013.5
20260506144513 15 49 0.0 12.9 0.00 0.00 0.00 86 1013.3
20260506143036 15 59 0.0 6.4 0.00 0.00 0.00 86 1012.9
20260506141522 16 84 0.0 3.2 0.00 0.00 0.00 87 1012.7
20260506140010 16 61 0.0 9.7 0.00 0.00 0.00 87 1012.6
20260506134508 16 62 0.0 4.8 0.00 0.00 0.00 87 1012.2
20260506133013 17 327 0.0 4.8 0.00 0.00 0.00 86 1012.4
20260506131526 17 209 0.0 8.0 0.00 0.00 0.00 87 1012.1
20260506130024 18 265 0.0 3.2 0.00 0.00 0.00 86 1011.9
20260506124508 18 225 0.0 1.6 0.00 0.00 0.00 86 1011.6
20260506123012 19 85 0.0 3.2 0.00 0.00 0.00 84 1011.2
20260506121517 20 41 0.0 3.2 0.00 0.00 0.00 83 1011.1
20260506120024 21 37 0.0 3.2 0.00 0.00 0.00 84 1010.9
20260506114538 22 276 1.6 4.8 0.00 0.00 0.00 84 1010.6
20260506113026 23 236 0.0 4.8 0.00 0.00 0.00 90 1010.2
20260506111513 23 284 0.0 1.6 0.00 0.00 0.00 90 1009.9
20260506110020 23 257 1.6 6.4 0.00 0.00 0.00 90 1009.7
20260506104523 23 254 0.0 3.2 0.00 0.00 0.00 90 1009.6
20260506103025 23 267 0.0 3.2 0.00 0.00 0.00 90 1009.3
20260506101545 23 281 1.6 6.4 0.00 0.00 0.00 90 1009.3
20260506100017 23 140 0.0 6.4 0.00 0.00 0.00 90 1009.2
20260506094522 23 209 0.0 6.4 0.00 0.00 0.00 90 1009.1
20260506093024 23 257 0.0 9.7 0.00 0.00 0.00 89 1009.1
20260506091528 23 111 1.6 11.3 0.00 0.00 0.00 90 1009.1
20260506090027 23 344 1.6 8.0 0.00 0.00 0.00 90 1009.2
20260506084521 23 240 1.6 9.7 0.00 0.00 0.00 89 1009.0
20260506083020 23 330 0.0 8.0 0.00 0.00 0.00 89 1008.8
20260506081524 23 202 0.0 8.0 0.00 0.00 0.00 90 1009.0
20260506073018 23 128 0.0 4.8 0.00 0.00 0.00 89 1009.2
20260506071508 23 156 1.6 9.7 0.00 0.00 0.00 89 1009.0
20260506061523 23 252 0.0 9.7 0.00 0.00 0.00 87 1009.2
20260506044526 25 94 0.0 12.9 0.00 0.00 0.00 83 1008.8
20260506043010 25 293 1.6 11.3 0.00 0.00 0.00 83 1008.8
20260506041526 24 128 1.6 6.4 0.00 0.00 0.00 84 1008.4
20260506040020 25 156 0.0 8.0 0.00 0.00 0.00 84 1008.2
20260506034526 25 182 1.6 8.0 0.00 0.00 0.00 84 1008.0
20260506033030 25 134 1.6 8.0 0.00 0.00 0.00 83 1007.7
20260506031522 25 142 0.0 4.8 0.00 0.00 0.00 83 1007.9
20260506030023 25 162 1.6 6.4 0.00 0.00 0.00 82 1007.8
20260506024522 25 142 0.0 9.7 0.00 0.00 0.00 82 1007.5
20260506023025 25 140 0.0 4.8 0.00 0.00 0.00 81 1007.4
20260506021529 26 155 0.0 6.4 0.00 0.00 0.00 80 1007.6
20260506020022 26 173 0.0 3.2 0.00 0.00 0.00 80 1007.3
20260506014529 26 115 0.0 3.2 0.00 0.00 0.00 79 1007.2
20260506013003 26 260 1.6 6.4 0.00 0.00 0.00 78 1007.1
20260506011510 26 113 0.0 6.4 0.00 0.00 0.00 78 1006.8
20260506010023 27 126 0.0 1.6 0.00 0.00 0.00 77 1006.7
20260506004534 27 150 0.0 6.4 0.00 0.00 0.00 77 1006.3
20260506003024 27 121 0.0 8.0 0.00 0.00 0.00 75 1006.2
20260506001509 27 102 0.0 11.3 0.00 0.00 0.00 74 1006.1
20260506000016 28 177 3.2 9.7 0.00 0.00 0.00 73 1006.2
20260505234519 28 277 0.0 16.1 0.00 0.00 0.00 72 1006.2
20260505233022 28 125 3.2 16.1 0.00 0.00 0.00 71 1006.1
20260505231527 28 214 0.0 9.7 0.00 0.00 0.00 71 1006.0
20260505230012 28 273 4.8 19.3 0.00 0.00 0.00 70 1005.7
20260505224512 28 304 1.6 17.7 0.00 0.00 0.00 70 1005.8
20260505223018 28 298 3.2 12.9 0.00 0.00 0.00 69 1005.7
20260505221527 28 251 1.6 19.3 0.00 0.00 0.00 70 1005.7
20260505220036 29 201 4.8 17.7 0.00 0.00 0.00 69 1006.0
20260505214518 28 300 9.7 20.9 0.00 0.00 0.00 68 1006.3
20260505213018 28 292 4.8 29.0 0.00 0.00 0.00 70 1006.5
20260505211518 29 308 8.0 19.3 0.00 0.00 0.00 69 1006.4
20260505210029 28 223 6.4 22.5 0.00 0.00 0.00 70 1006.5
20260505204531 28 294 1.6 20.9 0.00 0.00 0.00 72 1006.7
20260505203015 28 141 1.6 24.1 0.00 0.00 0.00 73 1006.7
20260505201518 27 277 4.8 20.9 0.00 0.00 0.00 73 1007.2
20260505200027 27 103 1.6 17.7 0.00 0.00 0.00 74 1007.2
20260505194526 27 248 8.0 22.5 0.00 0.00 0.00 73 1007.3
20260505193040 27 219 4.8 19.3 0.00 0.00 0.00 74 1007.4
20260505191514 26 269 9.7 32.2 0.00 0.00 0.00 74 1007.3
20260505190029 26 236 8.0 22.5 0.00 0.00 0.00 75 1007.5
20260505184526 26 249 4.8 20.9 0.00 0.00 0.00 77 1007.7
20260505183039 26 276 8.0 29.0 0.00 0.00 0.00 76 1007.9
20260505181525 26 87 4.8 20.9 0.00 0.00 0.00 77 1007.8